This demonstration page uses our WeatherBlox Daily Observations layout. Learn more.

Left ArrowRight Arrow

30.21309, -93.2044

Hourly Observations for May 11, 2015

Temp ( °F °C ) Dew Point ( °F °C ) Humidity (%) Winds ( mph kmh ) Pressure ( in mb ) Visibility ( mi km ) Precip ( " mm )
12:15 am 00:15 Cloudy 77 25 74 23.2 90 90 SSE 10 17 29.97 1015 10 16 0.00 0.00
12:35 am 00:35 Cloudy 77 24.9 73 23 89 89 SSE 9 15 29.97 1015 10 16 0.00 0.00
12:55 am 00:55 Cloudy 76 24.7 73 23 90 90 SSE 12 19 29.97 1015 10 16 0.00 0.00
1:15 am 01:15 Cloudy 76 24.6 73 23 91 91 SSE 10 17 29.94 1014 10 16 0.00 0.00
1:35 am 01:35 Cloudy 76 24.7 74 23.1 91 91 SSE 10 17 29.94 1014 10 16 0.00 0.00
1:55 am 01:55 Cloudy 76 24.5 73 23 91 91 SSE 12 19 29.94 1014 10 16 0.00 0.00
2:15 am 02:15 Mostly Cloudy 76 24.5 73 22.9 91 91 SSE 8 13 29.97 1015 10 16 0.00 0.00
2:35 am 02:35 Mostly Cloudy 76 24.5 73 22.8 90 90 SSE 12 19 29.97 1015 10 16 0.00 0.00
2:55 am 02:55 Mostly Cloudy 76 24.6 73 22.7 89 89 SSE 10 17 29.94 1014 10 16 0.00 0.00
3:15 am 03:15 Cloudy 76 24.5 73 22.7 90 90 SSE 9 15 29.94 1014 10 16 0.00 0.00
3:35 am 03:35 Cloudy 76 24.2 73 22.8 92 92 SSE 8 13 29.94 1014 7 11 0.00 0.00
3:55 am 03:55 Cloudy 76 24.6 73 23 91 91 SSE 8 13 29.94 1014 7 11 0.00 0.00
4:15 am 04:15 Cloudy 76 24.6 73 23 91 91 SSE 9 15 29.94 1014 10 16 0.00 0.00
4:35 am 04:35 Cloudy 76 24.6 73 23 91 91 SSE 10 17 29.94 1014 7 11 0.00 0.00
4:55 am 04:55 Cloudy 76 24.5 73 23 91 91 SSE 9 15 29.97 1015 7 11 0.00 0.00
5:15 am 05:15 Cloudy 76 24.5 73 23 91 91 S 9 15 29.97 1015 7 11 0.00 0.00
6:00 am 06:00 Mostly Cloudy 75 24 73 23 94 94 SSE 8 13 30.00 1016 10 16 0.00 0.00
6:50 am 06:50 Mostly Cloudy with Mist and Fog 75 24 73 23 94 94 SSE 8 13 30.00 1016 6 10 0.00 0.00
7:45 am 07:45 Mostly Cloudy with Mist and Fog 77 25 73 23 89 89 SSE 6 9 30.03 1017 5 8 0.00 0.00
8:50 am 08:50 Mostly Cloudy with Mist and Fog 79 26 73 23 84 84 SSE 8 13 30.03 1017 6 10 0.00 0.00
9:45 am 09:45 Mostly Cloudy with Mist and Fog 81 27 73 23 79 79 S 8 13 30.06 1018 6 10 0.00 0.00
10:55 am 10:55 Cloudy with Thunderstorms 68 20 63 17 83 83 N 12 19 30.12 1020 7 11 0.00 0.00
11:55 am 11:55 Mostly Cloudy with Thunderstorms 64 18 63 17 94 94 N 12 19 30.12 1020 7 11 0.00 0.00
12:45 pm 12:45 Mostly Cloudy with Thunderstorms 68 20 64 18 88 88 N 12 19 30.09 1019 10 16 0.00 0.00
1:55 pm 13:55 Mostly Cloudy with Showers 72 22 64 18 78 78 E 12 19 30.09 1019 7 11 0.00 0.00
2:50 pm 14:50 Cloudy with Light Rain 66 19 64 18 94 94 E 5 7 30.09 1019 5 8 0.00 0.00
3:55 pm 15:55 Cloudy with Showers 68 20 66 19 94 94 E 6 9 30.06 1018 5 8 0.00 0.00
4:55 pm 16:55 Cloudy 70 21 66 19 88 88 E 10 17 30.03 1017 10 16 0.00 0.00
5:55 pm 17:55 Cloudy 70 21 66 19 88 88 ENE 6 9 30.03 1017 10 16 0.00 0.00
7:50 pm 19:50 Mostly Cloudy 70 21 66 19 88 88 ENE 5 7 30.03 1017 10 16 0.00 0.00
9:50 pm 21:50 Cloudy 70 21 68 20 94 94 Calm 30.09 1019 10 16 0.00 0.00
10:15 pm 22:15 Mostly Cloudy 70 21.1 68 20.1 94 94 Calm 30.09 1019 10 16 0.00 0.00
10:35 pm 22:35 Partly Cloudy 69 20.5 68 20 97 97 Calm 30.09 1019 10 16 0.00 0.00
10:55 pm 22:55 Clear 69 20.3 68 19.8 97 97 Calm 30.09 1019 10 16 0.00 0.00
11:15 pm 23:15 Clear 68 20.2 67 19.7 97 97 Calm 30.09 1019 10 16 0.00 0.00
11:35 pm 23:35 Clear 68 20.2 68 19.8 98 98 Calm 30.09 1019 10 16 0.00 0.00
11:55 pm 23:55 Clear 68 20 67 19.6 98 98 NNE 3 6 30.09 1019 10 16 0.00 0.00

Powered by AerisWeather